Proserpine, Australia

3:30 PM AEST on March 28, 2017 (GMT +1000)
Whitsunday

Weather History for YBPN - December, 2013

Change the Weather History Date:

Friday, December 6, 2013

  Actual Average Record
Temperature  
Mean Temperature 80 °F -  
Max Temperature 91 °F - - ()
Min Temperature 69 °F - - ()
Cooling Degree Days 15    
Growing Degree Days 30 (Base 50)    
Moisture  
Dew Point 70 °F    
Average Humidity 71    
Maximum Humidity 94    
Minimum Humidity 40    
Precipitation  
Precipitation 0.00 in - - ()
Sea Level Pressure  
Sea Level Pressure 29.82 in    
Wind  
Wind Speed 6 mph ()    
Max Wind Speed 16 mph    
Max Gust Speed -    
Visibility 6.7 miles    
Events      
T = Trace of Precipitation, MM = Missing Value Source: Averaged Metar Reports

Daily Weather History Graph

Daily Weather History Graph

Search for Another Location

Airport or City:

Trip Planner

Search our weather history database for the weather conditions in past years. The results will help you decide how hot, cold, wet, or windy it might be!

Date:

Astronomy

Dec. 06, 2013 Rise Set
Actual Time 5:17 AM AEST 6:36 PM AEST
Civil Twilight 4:52 AM AEST 7:00 PM AEST
Nautical Twilight 4:23 AM AEST 7:30 PM AEST
Astronomical Twilight 3:53 AM AEST 8:00 PM AEST
Moon 8:24 AM AEST (12/6) 9:41 PM AEST (12/6)
Length of Visible Light 14h 08m
Length of Day
13h 19m
Waxing Crescent, 13% of the Moon is Illuminated
Dec 6
Waxing Crescent
Dec 10
First Quarter
Dec 17
Full
Dec 25
Last Quarter
Jan 1
New

Hourly Weather History & Observations

Time (AEST) Temp. Heat Index Dew Point Humidity Pressure Visibility Wind Dir Wind Speed Gust Speed Precip Events Conditions
12:00 AM 71 °F - 68 °F 86% 29.77 in - North 3.5 mph - -  
12:00 AM 71.6 °F - 68.0 °F 88% 29.77 in 6.2 mi North 3.5 mph - N/A   Unknown
1:00 AM 71.6 °F - 68.0 °F 88% 29.74 in 6.2 mi North 5.8 mph - N/A   Unknown
2:00 AM 71.6 °F - 68.0 °F 88% 29.74 in 6.2 mi NW 5.8 mph - N/A   Unknown
3:00 AM 72 °F - 69 °F 85% 29.76 in - North 4.6 mph - -  
3:00 AM 71.6 °F - 68.0 °F 88% 29.74 in 6.2 mi North 4.6 mph - N/A   Mostly Cloudy
4:00 AM 69.8 °F - 68.0 °F 94% 29.74 in 6.2 mi North 5.8 mph - N/A   Scattered Clouds
5:00 AM 69.8 °F - 68.0 °F 94% 29.77 in 6.2 mi North 3.5 mph - N/A   Unknown
6:00 AM 72 °F - 70 °F 91% 29.80 in - Calm Calm - -  
6:00 AM 71.6 °F - 69.8 °F 94% 29.80 in 6.2 mi Calm Calm - N/A   Mostly Cloudy
7:00 AM 77.0 °F - 71.6 °F 83% 29.80 in 6.2 mi NNW 4.6 mph - N/A   Mostly Cloudy
8:00 AM 82.4 °F 86.3 °F 69.8 °F 66% 29.83 in 6.2 mi NW 6.9 mph - N/A   Scattered Clouds
9:00 AM 84 °F - 67 °F 46% 29.85 in 19 mi ENE 4.6 mph - -   Partly Cloudy
9:00 AM 84.2 °F 87.3 °F 68.0 °F 58% 29.83 in 6.2 mi NE 4.6 mph - N/A   Unknown
10:00 AM 89.6 °F 90.1 °F 62.6 °F 40% 29.83 in 6.2 mi WSW 5.8 mph - N/A   Unknown
11:00 AM 91.4 °F 95.4 °F 68.0 °F 46% 29.83 in 6.2 mi SE 11.5 mph - N/A   Unknown
12:00 PM 90 °F - 69 °F 41% 29.83 in - SE 12.7 mph - -  
12:00 PM 89.6 °F 94.7 °F 69.8 °F 52% 29.83 in 6.2 mi SE 12.7 mph - N/A   Unknown
1:00 PM 91.4 °F 96.8 °F 69.8 °F 49% 29.80 in 6.2 mi East 13.8 mph - N/A   Unknown
2:00 PM 89.6 °F 96.2 °F 71.6 °F 55% 29.80 in 6.2 mi ESE 16.1 mph - N/A   Unknown
3:00 PM 87 °F - 72 °F 52% 29.81 in 7 mi ESE 16.1 mph - -   Smoke
3:00 PM 87.8 °F 95.6 °F 73.4 °F 62% 29.80 in 6.2 mi ESE 16.1 mph - N/A   Unknown
4:00 PM 86.0 °F 91.8 °F 71.6 °F 62% 29.80 in 6.2 mi ESE 15.0 mph - N/A   Unknown
5:00 PM 84.2 °F 89.6 °F 71.6 °F 66% 29.80 in 6.2 mi ESE 13.8 mph - N/A   Unknown
6:00 PM 82 °F - 72 °F 65% 29.85 in - ESE 11.5 mph - -  
6:00 PM 80.6 °F 84.6 °F 71.6 °F 74% 29.83 in 6.2 mi ESE 11.5 mph - N/A   Unknown
7:00 PM 80.6 °F 85.4 °F 73.4 °F 79% 29.86 in 6.2 mi ESE 9.2 mph - N/A   Overcast
8:00 PM 80.6 °F 84.6 °F 71.6 °F 74% 29.89 in 6.2 mi East 8.1 mph - N/A   Overcast
9:00 PM 80 °F - 72 °F 72% 29.91 in - ESE 9.2 mph - -   Overcast
9:00 PM 80.6 °F 85.4 °F 73.4 °F 79% 29.89 in 6.2 mi East 9.2 mph - N/A   Overcast
10:00 PM 80.6 °F 84.6 °F 71.6 °F 74% 29.92 in 6.2 mi ESE 8.1 mph - N/A   Overcast
11:00 PM 78.8 °F - 71.6 °F 78% 29.92 in 6.2 mi East 6.9 mph - N/A   Overcast